Manila, Philippines

9:42 PM +08 on December 17, 2017 (GMT +0800)
Ninoy Aquino International

Weather History for RPLL - December, 2017

Change the Weather History Date:

Thursday, December 7, 2017

  Actual Average Record
Temperature  
Mean Temperature 83 °F -  
Max Temperature 88 °F 84 °F 93 °F (2015)
Min Temperature 78 °F 72 °F 73 °F (2001)
Cooling Degree Days 18    
Growing Degree Days 33 (Base 50)    
Moisture  
Dew Point 80 °F    
Average Humidity 93    
Maximum Humidity 100    
Minimum Humidity 68    
Precipitation  
Precipitation 0.16 in 0.05 in - ()
Sea Level Pressure  
Sea Level Pressure 29.81 in    
Wind  
Wind Speed 4 mph ()    
Max Wind Speed 10 mph    
Max Gust Speed 22 mph    
Visibility 5.9 miles    
Events Rain    
Averages and records for this station are not official NWS values.
T = Trace of Precipitation, MM = Missing Value Source: Averaged Metar Reports

Daily Weather History Graph

Daily Weather History Graph

Search for Another Location

Airport or City:

Trip Planner

Search our weather history database for the weather conditions in past years. The results will help you decide how hot, cold, wet, or windy it might be!

Date:

Astronomy

Dec. 07, 2017 Rise Set
Actual Time 6:08 AM +08 5:26 PM +08
Civil Twilight 5:45 AM +08 5:49 PM +08
Nautical Twilight 5:18 AM +08 6:16 PM +08
Astronomical Twilight 4:52 AM +08 6:42 PM +08
Moon 9:20 PM +08 (12/7) 9:29 AM +08 (12/7)
Length of Visible Light 12h 04m
Length of Day
11h 18m
Waning Gibbous, 83% of the Moon is Illuminated
Dec 7
Waning Gibbous
Dec 10
Last Quarter
Dec 18
New
Dec 26
First Quarter
Jan 2
Full

Hourly Weather History & Observations

Time (+08) Temp. Heat Index Dew Point Humidity Pressure Visibility Wind Dir Wind Speed Gust Speed Precip Events Conditions
12:00 AM 80.6 °F 89.3 °F 80.6 °F 100% 29.83 in 6.2 mi SE 6.9 mph - N/A   Mostly Cloudy
1:00 AM 80.6 °F 89.3 °F 80.6 °F 100% 29.83 in 6.2 mi East 4.6 mph - N/A   Mostly Cloudy
2:00 AM 79 °F - 79 °F 100% 29.84 in 6 mi ESE 4.5 mph - -   Haze
2:00 AM 78.8 °F - 78.8 °F 100% 29.83 in 6.2 mi ESE 4.6 mph - N/A   Mostly Cloudy
3:00 AM 78.8 °F - 78.8 °F 100% 29.80 in 6.2 mi East 4.6 mph - N/A   Mostly Cloudy
4:00 AM 78.8 °F - 78.8 °F 100% 29.80 in 6.2 mi Variable 2.3 mph - N/A   Mostly Cloudy
5:00 AM 79 °F - 79 °F 98% 29.82 in 6 mi Calm Calm - -   Haze
5:00 AM 78.8 °F - 78.8 °F 100% 29.80 in 6.2 mi Variable 1.2 mph - N/A   Mostly Cloudy
6:00 AM 78.8 °F - 78.8 °F 100% 29.83 in 6.2 mi Variable 2.3 mph - N/A   Mostly Cloudy
7:00 AM 80.6 °F 89.3 °F 80.6 °F 100% 29.83 in 6.2 mi Variable 1.2 mph - N/A   Scattered Clouds
8:00 AM 82 °F - 78 °F 85% 29.86 in 6 mi NE 2.2 mph - -   Haze
8:00 AM 82.4 °F 92.4 °F 78.8 °F 89% 29.86 in 6.2 mi Variable 2.3 mph - N/A   Scattered Clouds
9:00 AM 82.4 °F 90.9 °F 77.0 °F 84% 29.86 in 6.2 mi WNW 6.9 mph - N/A   Scattered Clouds
10:00 AM 84.2 °F 96.1 °F 78.8 °F 84% 29.86 in 6.2 mi West 6.9 mph - N/A   Mostly Cloudy
11:00 AM 85 °F - 76 °F 69% 29.83 in 6 mi WNW 8.9 mph - -   Haze
11:00 AM 86.0 °F 96.9 °F 77.0 °F 74% 29.83 in 6.2 mi WNW 9.2 mph - N/A   Mostly Cloudy
12:00 PM 84.2 °F 96.1 °F 78.8 °F 84% 29.80 in 6.2 mi NW 10.4 mph 21.9 mph N/A   Overcast
1:00 PM 86.0 °F 99.3 °F 78.8 °F 79% 29.77 in 6.2 mi West 5.8 mph - N/A   Overcast
2:00 PM 87 °F - 78 °F 68% 29.77 in 6 mi SSE 4.5 mph - -   Haze
2:00 PM 87.8 °F 102.5 °F 78.8 °F 75% 29.77 in 6.2 mi Variable 5.8 mph - N/A   Mostly Cloudy
2:24 PM 86.0 °F 99.3 °F 78.8 °F 79% 29.77 in 5.6 mi SSE 4.6 mph - N/A Rain Light Rain Showers
3:00 PM 84.2 °F 98.3 °F 80.6 °F 89% 29.77 in 5.6 mi South 3.5 mph - N/A Rain Light Rain Showers
4:00 PM 82.4 °F 96.1 °F 82.4 °F 100% 29.77 in 6.2 mi SE 4.6 mph - N/A   Mostly Cloudy
5:00 PM 83 °F - 82 °F 97% 29.78 in 6 mi SE 4.5 mph - -   Haze
5:00 PM 82.4 °F 96.1 °F 82.4 °F 100% 29.77 in 6.2 mi SE 4.6 mph - N/A   Mostly Cloudy
6:00 PM 82.4 °F 96.1 °F 82.4 °F 100% 29.80 in 6.2 mi Variable 2.3 mph - N/A   Mostly Cloudy
7:00 PM 82.4 °F 96.1 °F 82.4 °F 100% 29.80 in 6.2 mi SW 3.5 mph - N/A   Mostly Cloudy
8:00 PM 82 °F - 82 °F 100% 29.83 in 5 mi Calm Calm - - Rain Light Rain Showers
8:00 PM 82.4 °F 96.1 °F 82.4 °F 100% 29.83 in 5.0 mi Variable 1.2 mph - N/A Rain Light Rain Showers
9:00 PM 78.8 °F - 78.8 °F 100% 29.83 in 6.2 mi Variable 1.2 mph - N/A   Overcast
10:00 PM 80.6 °F 89.3 °F 80.6 °F 100% 29.83 in 5.0 mi Variable 1.2 mph - N/A Rain Light Rain Showers
11:00 PM 80 °F - 80 °F 99% 29.85 in 4 mi Calm Calm - - Rain Light Rain
11:00 PM 80.6 °F 89.3 °F 80.6 °F 100% 29.83 in 4.3 mi Variable 1.2 mph - N/A Rain Light Rain